Weather History for Newton, KS

Change the Weather History Date:

Monday, December 10, 2012

  Actual Average Record
Temperature  
Mean Temperature 20 °F -  
Max Temperature 32 °F 42 °F 64 °F (1996)
Min Temperature 8 °F 25 °F -22 °F (2013)
Degree Days  
Heating Degree Days 45    
Moisture  
Dew Point 2 °F    
Average Humidity 46    
Maximum Humidity 73    
Minimum Humidity 27    
Precipitation  
Precipitation 0.00 in - - ()
Sea Level Pressure  
Sea Level Pressure 30.08 in    
Wind  
Wind Speed 13 mph (West)    
Max Wind Speed 23 mph    
Max Gust Speed 30 mph    
Visibility 10 miles    
Events      
Averages and records for this station are not official NWS values.
T = Trace of Precipitation, MM = Missing Value Source: NWS Daily Summary

Daily Weather History Graph

Daily Weather History Graph

Search for Another Location

Airport:

Trip Planner

Search our weather history database for the weather conditions in past years. The results will help you decide how hot, cold, wet, or windy it might be!

Date:

Astronomy

Dec. 10, 2012 Rise Set
Actual Time 7:34 AM CST 5:09 PM CST
Civil Twilight 7:05 AM CST 5:38 PM CST
Nautical Twilight 6:32 AM CST 6:11 PM CST
Astronomical Twilight 6:00 AM CST 6:43 PM CST
Moon 4:21 AM CST (12/10) 2:58 PM CST (12/10)
Length of Visible Light 10h 33m
Length of Day
9h 34m
Waning Crescent, 10% of the Moon is Illuminated
Dec 10
Waning Crescent
Dec 13
New
Dec 19
First Quarter
Dec 28
Full
Jan 4
Last Quarter

Hourly Weather History & Observations

Time (CST) Temp. Windchill Dew Point Humidity Pressure Visibility Wind Dir Wind Speed Gust Speed Precip Events Conditions
12:15 AM 19.4 °F 5.5 °F 6.8 °F 58% 30.15 in 10.0 mi NNW 15.0 mph 23.0 mph N/A   Mostly Cloudy
12:35 AM 19.4 °F 3.2 °F 6.8 °F 58% 30.16 in 10.0 mi NNW 20.7 mph 25.3 mph N/A   Mostly Cloudy
12:55 AM 19.4 °F 2.5 °F 6.8 °F 58% 30.15 in 10.0 mi NNW 23.0 mph 27.6 mph N/A   Scattered Clouds
1:15 AM 17.6 °F 0.1 °F 5.0 °F 58% 30.14 in 10.0 mi NNW 23.0 mph 29.9 mph N/A   Clear
1:35 AM 17.6 °F 0.1 °F 3.2 °F 53% 30.13 in 10.0 mi NNW 23.0 mph 28.8 mph N/A   Clear
1:55 AM 15.8 °F -1.1 °F 1.4 °F 53% 30.13 in 10.0 mi NNW 19.6 mph 26.5 mph N/A   Clear
2:15 AM 15.8 °F -0.2 °F 1.4 °F 53% 30.13 in 10.0 mi NNW 17.3 mph 23.0 mph N/A   Clear
2:55 AM 15.8 °F 0.9 °F 1.4 °F 53% 30.14 in 10.0 mi NW 15.0 mph - N/A   Clear
3:15 AM 14.0 °F -2.0 °F 1.4 °F 57% 30.14 in 10.0 mi NNW 16.1 mph 25.3 mph N/A   Clear
3:35 AM 14.0 °F -1.4 °F -0.4 °F 53% 30.14 in 10.0 mi NNW 15.0 mph 21.9 mph N/A   Clear
3:55 AM 12.2 °F -3.7 °F -0.4 °F 57% 30.15 in 10.0 mi NNW 15.0 mph 21.9 mph N/A   Clear
4:15 AM 12.2 °F -3.1 °F -0.4 °F 57% 30.15 in 10.0 mi NNW 13.8 mph 17.3 mph N/A   Clear
4:35 AM 12.2 °F -3.7 °F -0.4 °F 57% 30.15 in 10.0 mi NNW 15.0 mph - N/A   Clear
4:55 AM 12.2 °F -2.5 °F 1.4 °F 62% 30.15 in 10.0 mi NNW 12.7 mph 19.6 mph N/A   Clear
5:15 AM 12.2 °F -3.7 °F -0.4 °F 57% 30.14 in 10.0 mi NW 15.0 mph - N/A   Clear
5:55 AM 10.4 °F -4.1 °F -0.4 °F 62% 30.15 in 10.0 mi NW 11.5 mph - N/A   Clear
6:15 AM 10.4 °F -2.4 °F -0.4 °F 62% 30.15 in 10.0 mi NNW 9.2 mph - N/A   Clear
6:35 AM 10.4 °F -1.5 °F -0.4 °F 62% 30.14 in 10.0 mi NW 8.1 mph - N/A   Clear
6:55 AM 10.4 °F -1.5 °F -0.4 °F 62% 30.14 in 10.0 mi NNW 8.1 mph - N/A   Clear
7:15 AM 8.6 °F -4.7 °F -0.4 °F 67% 30.14 in 10.0 mi NW 9.2 mph - N/A   Clear
7:35 AM 8.6 °F -2.6 °F -0.4 °F 67% 30.15 in 10.0 mi NW 6.9 mph - N/A   Clear
7:55 AM 8.6 °F -5.5 °F 1.4 °F 73% 30.15 in 10.0 mi WNW 10.4 mph - N/A   Clear
8:15 AM 10.4 °F -3.3 °F 1.4 °F 67% 30.15 in 10.0 mi NW 10.4 mph - N/A   Clear
8:35 AM 10.4 °F -2.4 °F 1.4 °F 67% 30.15 in 10.0 mi WNW 9.2 mph - N/A   Clear
8:55 AM 12.2 °F -2.5 °F 3.2 °F 67% 30.14 in 10.0 mi NW 12.7 mph - N/A   Clear
9:15 AM 12.2 °F -3.1 °F 3.2 °F 67% 30.14 in 10.0 mi NNW 13.8 mph - N/A   Clear
9:35 AM 15.8 °F 2.7 °F 3.2 °F 58% 30.13 in 10.0 mi NW 11.5 mph - N/A   Clear
9:55 AM 17.6 °F 4.3 °F 3.2 °F 53% 30.15 in 10.0 mi NW 12.7 mph - N/A   Clear
10:35 AM 19.4 °F 11.5 °F 3.2 °F 49% 30.15 in 10.0 mi WNW 5.8 mph - N/A   Clear
10:55 AM 19.4 °F 11.5 °F 3.2 °F 49% 30.14 in 10.0 mi NNW 5.8 mph - N/A   Clear
11:15 AM 21.2 °F 12.6 °F 3.2 °F 46% 30.14 in 10.0 mi NNW 6.9 mph - N/A   Clear
11:35 AM 23.0 °F 17.0 °F 3.2 °F 43% 30.13 in 10.0 mi NNW 4.6 mph - N/A   Clear
11:55 AM 24.8 °F - 3.2 °F 40% 30.12 in 10.0 mi Calm Calm - N/A   Clear
12:15 PM 24.8 °F 20.5 °F 1.4 °F 36% 30.11 in 10.0 mi NW 3.5 mph - N/A   Clear
12:35 PM 26.6 °F 20.0 °F 1.4 °F 34% 30.09 in 10.0 mi West 5.8 mph - N/A   Clear
12:55 PM 26.6 °F 21.2 °F 1.4 °F 34% 30.08 in 10.0 mi WNW 4.6 mph - N/A   Clear
1:15 PM 28.4 °F 20.4 °F 1.4 °F 31% 30.07 in 10.0 mi WNW 8.1 mph - N/A   Clear
1:35 PM 28.4 °F 21.2 °F 1.4 °F 31% 30.07 in 10.0 mi West 6.9 mph - N/A   Clear
1:55 PM 28.4 °F 20.4 °F 1.4 °F 31% 30.05 in 10.0 mi West 8.1 mph - N/A   Clear
2:15 PM 30.2 °F 22.6 °F 1.4 °F 29% 30.03 in 10.0 mi WSW 8.1 mph - N/A   Clear
2:35 PM 30.2 °F 21.9 °F 1.4 °F 29% 30.03 in 10.0 mi SW 9.2 mph - N/A   Clear
2:55 PM 30.2 °F 21.9 °F 1.4 °F 29% 30.02 in 10.0 mi SW 9.2 mph - N/A   Clear
3:15 PM 32.0 °F 24.2 °F 1.4 °F 27% 30.01 in 10.0 mi SSW 9.2 mph - N/A   Clear
3:35 PM 32.0 °F 24.8 °F 1.4 °F 27% 30.01 in 10.0 mi SW 8.1 mph - N/A   Clear
3:55 PM 32.0 °F 24.2 °F 1.4 °F 27% 30.00 in 10.0 mi SSW 9.2 mph - N/A   Clear
4:15 PM 30.2 °F 21.3 °F 1.4 °F 29% 30.00 in 10.0 mi SSW 10.4 mph - N/A   Clear
4:35 PM 30.2 °F 20.8 °F 1.4 °F 29% 30.00 in 10.0 mi SSW 11.5 mph - N/A   Clear
4:55 PM 30.2 °F 21.3 °F 1.4 °F 29% 29.99 in 10.0 mi SSW 10.4 mph - N/A   Clear
5:15 PM 28.4 °F 19.7 °F 1.4 °F 31% 29.99 in 10.0 mi SSW 9.2 mph - N/A   Clear
5:35 PM 26.6 °F 18.2 °F 1.4 °F 34% 29.99 in 10.0 mi South 8.1 mph - N/A   Clear
5:55 PM 24.8 °F 15.3 °F 1.4 °F 36% 29.99 in 10.0 mi SSW 9.2 mph - N/A   Clear
6:15 PM 23.0 °F 13.9 °F 1.4 °F 39% 29.99 in 10.0 mi South 8.1 mph - N/A   Clear
6:35 PM 21.2 °F 11.7 °F 1.4 °F 42% 30.00 in 10.0 mi South 8.1 mph - N/A   Clear
6:55 PM 23.0 °F 12.4 °F 3.2 °F 43% 30.00 in 10.0 mi South 10.4 mph - N/A   Clear
7:15 PM 23.0 °F 12.4 °F 1.4 °F 39% 29.99 in 10.0 mi South 10.4 mph - N/A   Clear
7:35 PM 24.8 °F 14.0 °F 3.2 °F 40% 29.99 in 10.0 mi South 11.5 mph - N/A   Clear
7:55 PM 24.8 °F 13.4 °F 3.2 °F 40% 29.99 in 10.0 mi SSW 12.7 mph - N/A   Clear
8:15 PM 24.8 °F 14.0 °F 3.2 °F 40% 29.99 in 10.0 mi SSW 11.5 mph - N/A   Clear
8:55 PM 24.8 °F 14.6 °F 3.2 °F 40% 29.99 in 10.0 mi SSW 10.4 mph - N/A   Clear
9:15 PM 24.8 °F 13.4 °F 3.2 °F 40% 29.99 in 10.0 mi SSW 12.7 mph - N/A   Clear
9:35 PM 24.8 °F 14.0 °F 3.2 °F 40% 29.99 in 10.0 mi SSW 11.5 mph - N/A   Clear
9:55 PM 24.8 °F 14.0 °F 1.4 °F 36% 29.99 in 10.0 mi SW 11.5 mph - N/A   Clear
10:15 PM 24.8 °F 14.0 °F 1.4 °F 36% 29.99 in 10.0 mi SW 11.5 mph - N/A   Clear
10:35 PM 24.8 °F 13.4 °F 3.2 °F 40% 29.99 in 10.0 mi SW 12.7 mph - N/A   Clear
10:55 PM 24.8 °F 13.4 °F 1.4 °F 36% 30.00 in 10.0 mi SSW 12.7 mph - N/A   Clear
11:15 PM 23.0 °F 11.1 °F 1.4 °F 39% 30.00 in 10.0 mi SW 12.7 mph - N/A   Clear
11:35 PM 23.0 °F 11.1 °F 1.4 °F 39% 30.01 in 10.0 mi SW 12.7 mph - N/A   Clear
11:55 PM 23.0 °F 11.7 °F 1.4 °F 39% 30.01 in 10.0 mi SSW 11.5 mph - N/A   Clear